EN

Hourly Weather Barniewice

Today, 21 January, Thursday

Time Temperature Precipitation Wind Pressure Humidity
00:00 -1°C° 0 mm 6 mps 738 mmHg 91%
01:00 -1°C° 0 mm 6 mps 738 mmHg 87%
02:00 -1°C° 0 mm 6 mps 737 mmHg 86%
03:00 -1°C° 0 mm 6 mps 737 mmHg 86%
04:00 -1°C° 0 mm 6 mps 737 mmHg 85%
05:00 -1°C° 0 mm 6 mps 737 mmHg 84%
06:00 -1°C° 0 mm 6 mps 737 mmHg 83%
07:00 -1°C° 0 mm 7 mps 737 mmHg 81%
08:00 -1°C° 0 mm 7 mps 737 mmHg 80%
09:00 0°C° 0 mm 7 mps 737 mmHg 79%
10:00 0°C° 0 mm 8 mps 737 mmHg 78%
11:00 0°C° 0 mm 8 mps 737 mmHg 78%
12:00 +1°C° 0 mm 8 mps 737 mmHg 79%
13:00 +1°C° 0 mm 8 mps 736 mmHg 79%
14:00 +1°C° 0 mm 8 mps 736 mmHg 80%
15:00 +2°C° 0 mm 7 mps 736 mmHg 82%
16:00 0°C° 0 mm 7 mps 736 mmHg 83%
17:00 0°C° 0 mm 7 mps 736 mmHg 83%
18:00 0°C° 0 mm 7 mps 736 mmHg 84%
19:00 0°C° 0 mm 7 mps 736 mmHg 84%
20:00 0°C° 0 mm 7 mps 736 mmHg 85%
21:00 0°C° 0 mm 7 mps 736 mmHg 85%
22:00 -1°C° 0 mm 7 mps 736 mmHg 86%
23:00 -1°C° 0 mm 6 mps 736 mmHg 87%

Tomorrow, 22 January, Friday

Time Temperature Precipitation Wind Pressure Humidity
00:00 -1°C° 0 mm 6 mps 736 mmHg 88%
01:00 -1°C° 0 mm 6 mps 736 mmHg 89%
02:00 -1°C° 0 mm 6 mps 735 mmHg 89%
03:00 -1°C° 0 mm 6 mps 735 mmHg 89%
04:00 -1°C° 0 mm 6 mps 735 mmHg 89%
05:00 -1°C° 0 mm 7 mps 734 mmHg 89%
06:00 0°C° 0 mm 7 mps 734 mmHg 90%
07:00 0°C° 0 mm 8 mps 734 mmHg 90%
08:00 0°C° 0 mm 8 mps 734 mmHg 88%
09:00 0°C° 0 mm 7 mps 733 mmHg 86%
10:00 0°C° 0 mm 7 mps 733 mmHg 84%
11:00 0°C° 0 mm 7 mps 733 mmHg 85%
12:00 0°C° 0 mm 7 mps 733 mmHg 86%
13:00 +2°C° 0 mm 7 mps 732 mmHg 88%
14:00 +1°C° 0 mm 6 mps 732 mmHg 89%
15:00 -1°C° 0 mm 6 mps 732 mmHg 91%
16:00 0°C° 0 mm 5 mps 732 mmHg 92%
17:00 0°C° 0 mm 5 mps 732 mmHg 93%
18:00 -1°C° 0 mm 5 mps 733 mmHg 93%
19:00 -1°C° 0 mm 4 mps 733 mmHg 93%
20:00 -1°C° 0 mm 4 mps 733 mmHg 93%
21:00 -1°C° 0 mm 4 mps 733 mmHg 93%
22:00 +1°C° 0 mm 3 mps 733 mmHg 93%
23:00 +1°C° 0.1 mm 3 mps 734 mmHg 94%

Day after tomorrow, 23 January, Saturday

Time Temperature Precipitation Wind Pressure Humidity
00:00 +1°C° 0.1 mm 3 mps 734 mmHg 95%
01:00 +2°C° 0.1 mm 2 mps 734 mmHg 96%
02:00 +2°C° 0.2 mm 2 mps 734 mmHg 96%
03:00 +3°C° 0.2 mm 1 mps 734 mmHg 96%
04:00 +3°C° 0.2 mm 1 mps 735 mmHg 96%
05:00 +3°C° 0 mm 1 mps 735 mmHg 96%
06:00 +2°C° 0 mm 1 mps 735 mmHg 95%
07:00 +2°C° 0 mm 1 mps 735 mmHg 95%
08:00 +3°C° 0 mm 1 mps 735 mmHg 95%
09:00 +2°C° 0 mm 2 mps 735 mmHg 96%
10:00 +1°C° 0 mm 3 mps 735 mmHg 96%
11:00 +1°C° 0.6 mm 3 mps 734 mmHg 96%
12:00 0°C° 0.6 mm 4 mps 734 mmHg 97%
13:00 0°C° 0.6 mm 4 mps 733 mmHg 97%
14:00 0°C° 1.6 mm 4 mps 732 mmHg 97%
15:00 0°C° 1.6 mm 4 mps 732 mmHg 98%
16:00 0°C° 1.6 mm 5 mps 731 mmHg 98%
17:00 0°C° 0.5 mm 5 mps 730 mmHg 98%
18:00 0°C° 0.5 mm 5 mps 730 mmHg 97%
19:00 0°C° 0.5 mm 5 mps 730 mmHg 97%
20:00 0°C° 0 mm 5 mps 730 mmHg 96%
21:00 -1°C° 0 mm 6 mps 730 mmHg 95%
22:00 -1°C° 0 mm 6 mps 729 mmHg 94%
23:00 -1°C° 0 mm 6 mps 730 mmHg 94%

24 January, Sunday

Time Temperature Precipitation Wind Pressure Humidity
00:00 -1°C° 0 mm 6 mps 730 mmHg 95%
01:00 -1°C° 0 mm 6 mps 731 mmHg 95%
02:00 -1°C° 0 mm 6 mps 731 mmHg 94%
03:00 -1°C° 0 mm 7 mps 732 mmHg 93%
04:00 -1°C° 0 mm 7 mps 732 mmHg 92%
05:00 -2°C° 0 mm 6 mps 733 mmHg 91%
06:00 -1°C° 0 mm 5 mps 733 mmHg 89%
07:00 -1°C° 0 mm 5 mps 734 mmHg 88%
08:00 -1°C° 0 mm 5 mps 734 mmHg 88%
09:00 -1°C° 0 mm 5 mps 735 mmHg 88%
10:00 -1°C° 0 mm 5 mps 735 mmHg 87%
11:00 -1°C° 0 mm 4 mps 735 mmHg 86%
12:00 0°C° 0 mm 4 mps 735 mmHg 84%
13:00 0°C° 0 mm 4 mps 735 mmHg 83%
14:00 0°C° 0 mm 4 mps 735 mmHg 85%
15:00 -1°C° 0 mm 4 mps 735 mmHg 87%
16:00 0°C° 0 mm 3 mps 735 mmHg 89%
17:00 0°C° 0 mm 3 mps 735 mmHg 89%
18:00 -1°C° 0 mm 3 mps 736 mmHg 89%
19:00 -1°C° 0 mm 3 mps 736 mmHg 89%
20:00 -1°C° 0 mm 3 mps 736 mmHg 91%
21:00 -2°C° 0 mm 4 mps 736 mmHg 92%
22:00 -2°C° 0 mm 4 mps 736 mmHg 94%
23:00 -2°C° 0 mm 4 mps 736 mmHg 93%

25 January, Monday

Time Temperature Precipitation Wind Pressure Humidity
00:00 -2°C° 0 mm 4 mps 736 mmHg 92%
01:00 -2°C° 0 mm 4 mps 736 mmHg 92%
02:00 -3°C° 0 mm 4 mps 736 mmHg 92%
03:00 -2°C° 0 mm 3 mps 736 mmHg 93%
04:00 -2°C° 0 mm 3 mps 736 mmHg 93%
05:00 -2°C° 0 mm 3 mps 737 mmHg 93%
06:00 -2°C° 0 mm 3 mps 737 mmHg 93%
07:00 -2°C° 0 mm 3 mps 737 mmHg 93%
08:00 -1°C° 0.1 mm 3 mps 738 mmHg 92%
09:00 -1°C° 0.1 mm 3 mps 738 mmHg 92%
10:00 -2°C° 0.1 mm 4 mps 739 mmHg 91%
11:00 -1°C° 0 mm 4 mps 739 mmHg 86%
12:00 -1°C° 0 mm 4 mps 739 mmHg 81%
13:00 0°C° 0 mm 4 mps 739 mmHg 77%
14:00 -1°C° 0 mm 4 mps 740 mmHg 79%
15:00 -1°C° 0 mm 4 mps 740 mmHg 81%
16:00 -2°C° 0 mm 4 mps 740 mmHg 84%
17:00 -2°C° 0 mm 4 mps 741 mmHg 85%
18:00 -1°C° 0 mm 3 mps 741 mmHg 86%
19:00 -2°C° 0 mm 3 mps 741 mmHg 88%
20:00 -3°C° 0 mm 4 mps 741 mmHg 89%
21:00 -3°C° 0 mm 4 mps 742 mmHg 90%
22:00 -3°C° 0 mm 4 mps 742 mmHg 91%
23:00 -3°C° 0 mm 4 mps 742 mmHg 91%

26 January, Tuesday

Time Temperature Precipitation Wind Pressure Humidity
00:00 -3°C° 0 mm 4 mps 742 mmHg 90%
01:00 -3°C° 0 mm 4 mps 742 mmHg 90%
02:00 -3°C° 0 mm 4 mps 742 mmHg 90%
03:00 -3°C° 0 mm 4 mps 742 mmHg 90%
04:00 -3°C° 0 mm 4 mps 742 mmHg 90%
05:00 -3°C° 0 mm 4 mps 742 mmHg 90%
06:00 -3°C° 0 mm 4 mps 742 mmHg 89%
07:00 -4°C° 0 mm 5 mps 742 mmHg 88%
08:00 -2°C° 0 mm 5 mps 742 mmHg 85%
09:00 -2°C° 0 mm 5 mps 742 mmHg 81%
10:00 -1°C° 0 mm 5 mps 742 mmHg 78%
11:00 -2°C° 0 mm 6 mps 742 mmHg 76%
12:00 -1°C° 0 mm 6 mps 742 mmHg 75%
13:00 -1°C° 0 mm 6 mps 742 mmHg 73%
14:00 -2°C° 0 mm 6 mps 742 mmHg 75%
15:00 -2°C° 0 mm 6 mps 742 mmHg 78%
16:00 -3°C° 0 mm 6 mps 742 mmHg 80%
17:00 -3°C° 0 mm 6 mps 742 mmHg 81%
18:00 -4°C° 0 mm 5 mps 742 mmHg 81%
19:00 -4°C° 0 mm 5 mps 742 mmHg 82%
20:00 -4°C° 0 mm 5 mps 742 mmHg 82%
21:00 -5°C° 0 mm 5 mps 742 mmHg 83%
22:00 -5°C° 0 mm 5 mps 741 mmHg 84%
23:00 -4°C° 0 mm 4 mps 741 mmHg 84%
Show more

We Need Your Consent

Meteoprog and our Service Providers may store and access personal data such as cookies, device identifiers or other similar technologies on your device and process such data to personalise content and ads, as well as provide social media features and to analyse the traffic.

  • Store and/or access information on your device

    Cookies, device identifiers or other information can be stored or accessed on your device for the purposes indicated above.

  • Personalised ads and content, ad and content measurement, audience insights, and products development

    Ads and content can be personalised based on a profile. More data can be added to better personalise ads and content. Ad and content performance can be measured. Insights about the audience who saw the ads and content can be derived. Such data can be used to develop or improve user’s experience, systems and software.

By clicking ‘I Agree’ you will allow the use of indicated cookies, device identifiers, web beacons or other similar technologies. Your settings can be changed in the browser on your device.

For certain purposes, legitimate interests may be relied on, rather than consent. You can read more about this in our Privacy and Cookie Policy.